カタログに戻る

COSMOS 1375 DEB

運用中LEO
NORAD 18278·DEBRIS·🇷🇺 Russia

打ち上げ Jun 6, 1982 から Plesetsk Cosmodrome

Loading…

次のパス (今後24時間)

TLE

最新Source: Space-Track

元期: Sep 14, 2026, 11:10 UTC

1 18278U 82055BA  26257.46546716  .00000388  00000-0  37591-3 0  9994
2 18278  65.8287  67.9780 0030910 148.8809 240.4064 13.90738271 64250

AllMySatでCOSMOS 1375 DEBをリアルタイム追跡

Download on the App Store